Regional Weather Roundup
Issued by NWS

Home | Current Version | Previous Version | Text Only | Print | Product List | Glossary Off
Versions: 1 2 3 4 5 6 7 8 9 10 11 12 13 14 15 16 17 18 19 20 21 22 23 24 25 26 27 28 29 30 31 32 33 34 35 36 37 38 39 40 41 42 43 44 45 46 47 48 49 50

000
ASUS43 KBIS 260231
RWRND
NORTH DAKOTA REGIONAL WEATHER ROUNDUP
NATIONAL WEATHER SERVICE EASTERN NORTH DAKOTA/GRAND FORKS ND
900 PM CDT WED APR 25 2018

  NOTE: "FAIR" INDICATES FEW OR NO CLOUDS BELOW 12,000 FEET WITH NO
  SIGNIFICANT WEATHER AND/OR OBSTRUCTIONS TO VISIBILITY.

NDZ001>003-009>011-017-260300-
...NORTHWEST NORTH DAKOTA...

CITY           SKY/WX    TMP DP  RH WIND       PRES   REMARKS
WILLISTON      FAIR      60  28  29 N21       29.92R
MINOT          FAIR      59  34  39 NW22G31   29.80R
MINOT AFB      FAIR      58  35  41 N18       29.80R
$$

NDZ018>021-031>035-040>046-260300-
...SOUTHWEST NORTH DAKOTA...

CITY           SKY/WX    TMP DP  RH WIND       PRES   REMARKS
BISMARCK       FAIR      61  29  29 SW9       29.80R
DICKINSON      FAIR      54  30  40 NW9       29.85R
GARRISON         N/A     57  33  40 NW8       29.79R
HETTINGER      FAIR      50  32  50 NW6       29.88S
$$

NDZ004>008-012>016-024-026-027-054-260300-
...NORTHEAST NORTH DAKOTA...

CITY           SKY/WX    TMP DP  RH WIND       PRES   REMARKS
GRAND FORKS    MOCLDY    52  39  61 S8        29.77F
GRAND FORKS AF FAIR      54  38  53 S10       29.76F
DEVILS LAKE    FAIR      53  30  41 S7        29.75F
$$

NDZ022-023-025-028>030-036>039-047>053-260300-
...SOUTHEAST NORTH DAKOTA...

CITY           SKY/WX    TMP DP  RH WIND       PRES   REMARKS
JAMESTOWN      FAIR      56  31  38 S14       29.79F
FARGO          FAIR      56  36  47 S13       29.84F
WAHPETON       FAIR      50  36  57 S10       29.89F
$$




USA.gov is the U.S. government's official web portal to all federal, state and local government web resources and services.